Location: ?
(35.2180°N, 139.6392°E)
Time: 20:59:55
(UTC+00:00)

Cosmos 2227 Rocket - Pass Details

Date: 05 August 2024
Orbit: 839 x 843 km, 71.0° (Epoch: 14 September)

Event Time Altitude Azimuth Distance (km) Brightness Sun altitude
Rises 14:44:40 0° 332° (NNW) 3,397 6.1 -38.1°
Reaches altitude 10° 14:47:10 10° 327° (NNW) 2,459 5.1 -38.1°
Enters shadow 14:49:06 21° 319° (NW) 1,789 4.2 -38.1°
